Weather History for KFME - August, 2013

Change the Weather History Date:

Saturday, August 24, 2013

  Actual Average (KBWI) Record (KBWI)
Temperature  
Mean Temperature 66 °F 74 °F  
Max Temperature 80 °F 84 °F 98 °F (1968)
Min Temperature 53 °F 64 °F 48 °F (1952)
Degree Days  
Heating Degree Days 0 0  
Month to date heating degree days 0  
Since 1 June heating degree days 15  
Since 1 July heating degree days 0  
Cooling Degree Days 2 9  
Month to date cooling degree days 255  
Year to date cooling degree days 949  
Since 1 June cooling degree days 865  
Growing Degree Days 16 (Base 50)    
Moisture  
Dew Point 55 °F    
Average Humidity 70    
Maximum Humidity 100    
Minimum Humidity 34    
Precipitation  
Precipitation 0.00 in 0.10 in 1.56 in (1967)
Month to date precipitation 2.59  
Year to date precipitation 27.15  
Snow  
Snow 0.00 in 0.00 in - ()
Month to date snowfall 0.0  
Since 1 July snowfall 0.0  
Snow Depth -    
Sea Level Pressure  
Sea Level Pressure 30.27 in    
Wind  
Wind Speed 3 mph (ENE)    
Max Wind Speed 12 mph    
Max Gust Speed 18 mph    
Visibility 9 miles    
Events      
T = Trace of Precipitation, MM = Missing Value Source: NWS Daily Summary

Daily Weather History Graph

Daily Weather History Graph

Search for Another Location

Airport or City:

Trip Planner

Search our weather history database for the weather conditions in past years. The results will help you decide how hot, cold, wet, or windy it might be!

Date:

Astronomy

Aug. 24, 2013 Rise Set
Actual Time 6:28 AM EDT 7:49 PM EDT
Civil Twilight 6:00 AM EDT 8:17 PM EDT
Nautical Twilight 5:27 AM EDT 8:50 PM EDT
Astronomical Twilight 4:52 AM EDT 9:25 PM EDT
Moon 9:44 PM EDT (8/24) 10:23 AM EDT (8/24)
Length of Visible Light 14h 16m
Length of Day
13h 20m
Waning Gibbous, 84% of the Moon is Illuminated
Aug 24
Waning Gibbous
Aug 28
Last Quarter
Sep 5
New
Sep 12
First Quarter
Sep 19
Full

Hourly Weather History & Observations

Time (EDT) Temp. Heat Index Dew Point Humidity Pressure Visibility Wind Dir Wind Speed Gust Speed Precip Events Conditions
12:15 AM 59.0 °F - 55.4 °F 88% 30.15 in 7.0 mi NW 3.5 mph - N/A   Clear
12:36 AM 59.0 °F - 55.4 °F 88% 30.15 in 7.0 mi NW 3.5 mph - N/A   Clear
12:54 AM 59.0 °F - 57.2 °F 94% 30.15 in 7.0 mi Calm Calm - N/A   Clear
1:15 AM 59.0 °F - 57.2 °F 94% 30.15 in 7.0 mi Calm Calm - N/A   Clear
1:36 AM 59.0 °F - 57.2 °F 94% 30.15 in 7.0 mi Calm Calm - N/A   Clear
1:54 AM 57.2 °F - 55.4 °F 94% 30.15 in 4.0 mi Calm Calm - N/A   Clear
2:15 AM 57.2 °F - 55.4 °F 94% 30.16 in 5.0 mi Calm Calm - N/A   Clear
2:33 AM 59.0 °F - 55.4 °F 88% 30.16 in 5.0 mi Calm Calm - N/A   Clear
2:54 AM 59.0 °F - 55.4 °F 88% 30.16 in 5.0 mi Calm Calm - N/A   Clear
3:15 AM 57.2 °F - 55.4 °F 94% 30.17 in 5.0 mi Calm Calm - N/A   Clear
3:36 AM 57.2 °F - 55.4 °F 94% 30.17 in 5.0 mi Calm Calm - N/A   Clear
3:54 AM 55.4 °F - 55.4 °F 100% 30.18 in 4.0 mi Calm Calm - N/A   Clear
4:15 AM 55.4 °F - 53.6 °F 94% 30.18 in 5.0 mi Calm Calm - N/A   Scattered Clouds
4:36 AM 55.4 °F - 53.6 °F 94% 30.19 in 5.0 mi Calm Calm - N/A   Scattered Clouds
4:57 AM 55.4 °F - 53.6 °F 94% 30.20 in 5.0 mi Calm Calm - N/A   Scattered Clouds
5:15 AM 55.4 °F - 53.6 °F 94% 30.20 in 3.0 mi Calm Calm - N/A   Scattered Clouds
5:36 AM 55.4 °F - 53.6 °F 94% 30.21 in 5.0 mi Calm Calm - N/A   Clear
5:57 AM 55.4 °F - 53.6 °F 94% 30.21 in 5.0 mi Calm Calm - N/A   Clear
6:15 AM 53.6 °F - 53.6 °F 100% 30.22 in 7.0 mi Calm Calm - N/A   Clear
6:36 AM 53.6 °F - 51.8 °F 94% 30.23 in 4.0 mi Calm Calm - N/A   Clear
6:57 AM 55.4 °F - 53.6 °F 94% 30.24 in 5.0 mi Calm Calm - N/A   Clear
7:15 AM 55.4 °F - 53.6 °F 94% 30.24 in 7.0 mi Calm Calm - N/A   Clear
7:36 AM 57.2 °F - 55.4 °F 94% 30.25 in 10.0 mi Calm Calm - N/A   Clear
7:57 AM 62.6 °F - 57.2 °F 82% 30.26 in 10.0 mi North 4.6 mph - N/A   Clear
8:15 AM 64.4 °F - 57.2 °F 77% 30.26 in 10.0 mi North 5.8 mph - N/A   Clear
8:36 AM 68.0 °F - 55.4 °F 64% 30.27 in 10.0 mi NNE 6.9 mph - N/A   Clear
8:57 AM 68.0 °F - 55.4 °F 64% 30.28 in 10.0 mi NNE 4.6 mph - N/A   Clear
9:15 AM 69.8 °F - 55.4 °F 60% 30.28 in 10.0 mi ENE 8.1 mph - N/A   Clear
9:36 AM 71.6 °F - 57.2 °F 60% 30.29 in 10.0 mi NNE 6.9 mph - N/A   Clear
9:57 AM 71.6 °F - 57.2 °F 60% 30.29 in 10.0 mi ENE 6.9 mph - N/A   Clear
10:15 AM 73.4 °F - 57.2 °F 57% 30.29 in 10.0 mi NE 8.1 mph - N/A   Clear
10:36 AM 73.4 °F - 59.0 °F 61% 30.30 in 10.0 mi ENE 6.9 mph - N/A   Clear
10:57 AM 75.2 °F - 59.0 °F 57% 30.30 in 10.0 mi ENE 6.9 mph - N/A   Clear
11:15 AM 75.2 °F - 59.0 °F 57% 30.30 in 10.0 mi NE 5.8 mph - N/A   Clear
11:36 AM 77.0 °F - 59.0 °F 54% 30.30 in 10.0 mi ENE 9.2 mph - N/A   Clear
11:57 AM 77.0 °F - 59.0 °F 54% 30.30 in 10.0 mi NNE 5.8 mph - N/A   Clear
12:15 PM 77.0 °F - 59.0 °F 54% 30.30 in 10.0 mi ENE 4.6 mph - N/A   Scattered Clouds
12:36 PM 78.8 °F - 59.0 °F 51% 30.30 in 10.0 mi ENE 6.9 mph - N/A   Scattered Clouds
12:57 PM 77.0 °F - 59.0 °F 54% 30.29 in 10.0 mi East 9.2 mph - N/A   Scattered Clouds
1:15 PM 78.8 °F - 57.2 °F 47% 30.29 in 10.0 mi East 9.2 mph - N/A   Scattered Clouds
1:36 PM 80.6 °F 80.8 °F 57.2 °F 45% 30.29 in 10.0 mi NE 8.1 mph - N/A   Scattered Clouds
1:57 PM 80.6 °F 80.5 °F 55.4 °F 42% 30.29 in 10.0 mi ESE 5.8 mph - N/A   Scattered Clouds
2:18 PM 78.8 °F - 51.8 °F 39% 30.29 in 10.0 mi East 9.2 mph 18.4 mph N/A   Mostly Cloudy
2:36 PM 77.0 °F - 55.4 °F 47% 30.29 in 10.0 mi East 9.2 mph - N/A   Overcast
2:57 PM 80.6 °F 80.3 °F 53.6 °F 39% 30.29 in 10.0 mi NE 6.9 mph - N/A   Overcast
3:18 PM 80.6 °F - 51.8 °F 37% 30.29 in 10.0 mi East 8.1 mph - N/A   Scattered Clouds
3:36 PM 80.6 °F - 50.0 °F 34% 30.29 in 10.0 mi East 11.5 mph - N/A   Clear
3:57 PM 80.6 °F - 50.0 °F 34% 30.29 in 10.0 mi East 5.8 mph - N/A   Clear
4:18 PM 80.6 °F - 50.0 °F 34% 30.29 in 10.0 mi East 5.8 mph - N/A   Clear
4:36 PM 80.6 °F - 50.0 °F 34% 30.29 in 10.0 mi ENE 4.6 mph - N/A   Clear
4:57 PM 78.8 °F - 48.2 °F 34% 30.29 in 10.0 mi Calm Calm - N/A   Clear
5:18 PM 78.8 °F - 48.2 °F 34% 30.29 in 10.0 mi ENE 6.9 mph - N/A   Clear
5:36 PM 78.8 °F - 48.2 °F 34% 30.29 in 10.0 mi East 4.6 mph - N/A   Clear
5:57 PM 78.8 °F - 50.0 °F 36% 30.29 in 10.0 mi East 5.8 mph - N/A   Clear
6:18 PM 77.0 °F - 50.0 °F 39% 30.29 in 10.0 mi ENE 5.8 mph - N/A   Clear
6:36 PM 77.0 °F - 50.0 °F 39% 30.29 in 10.0 mi East 8.1 mph - N/A   Clear
6:57 PM 73.4 °F - 51.8 °F 47% 30.30 in 10.0 mi ENE 5.8 mph - N/A   Clear
7:18 PM 71.6 °F - 53.6 °F 53% 30.30 in 10.0 mi East 5.8 mph - N/A   Clear
7:36 PM 69.8 °F - 57.2 °F 64% 30.31 in 10.0 mi East 3.5 mph - N/A   Clear
7:57 PM 66.2 °F - 59.0 °F 78% 30.31 in 10.0 mi Calm Calm - N/A   Clear
8:18 PM 64.4 °F - 59.0 °F 83% 30.32 in 10.0 mi Calm Calm - N/A   Clear
8:36 PM 62.6 °F - 57.2 °F 82% 30.32 in 10.0 mi Calm Calm - N/A   Clear
8:57 PM 60.8 °F - 57.2 °F 88% 30.33 in 10.0 mi Calm Calm - N/A   Clear
9:18 PM 60.8 °F - 55.4 °F 82% 30.34 in 10.0 mi Calm Calm - N/A   Clear
9:36 PM 60.8 °F - 55.4 °F 82% 30.35 in 10.0 mi Calm Calm - N/A   Clear
9:57 PM 59.0 °F - 55.4 °F 88% 30.35 in 10.0 mi Calm Calm - N/A   Clear
10:18 PM 59.0 °F - 55.4 °F 88% 30.35 in 10.0 mi Calm Calm - N/A   Clear
10:39 PM 59.0 °F - 55.4 °F 88% 30.35 in 10.0 mi Calm Calm - N/A   Clear
10:57 PM 59.0 °F - 55.4 °F 88% 30.36 in 10.0 mi Calm Calm - N/A   Clear
11:18 PM 57.2 °F - 55.4 °F 94% 30.36 in 10.0 mi Calm Calm - N/A   Clear
11:39 PM 57.2 °F - 55.4 °F 94% 30.37 in 10.0 mi Calm Calm - N/A   Clear
11:57 PM 55.4 °F - 53.6 °F 94% 30.37 in 10.0 mi Calm Calm - N/A   Clear